Location: Zagreb
(45.8000°N, 16.0000°E)
Time: 22:36:27
(UTC+01:00)

Tiros 1 despin weight - Pass Details

Date: 03 February 2020
Orbit: 594 x 642 km, 48.2° (Epoch: 24 February)

Event Time Altitude Azimuth Distance (km) Brightness Sun altitude
Rises 08:03:23 0° 232° (SW) 2,825 ? 6.5°
Reaches altitude 10° 08:05:42 10° 228° (SW) 1,929 ? 6.8°
Maximum altitude 08:09:59 53° 152° (SSE) 745 ? 7.4°
Drops below altitude 10° 08:14:22 10° 75° (ENE) 1,960 ? 8.1°
Sets 08:16:43 0° 71° (ENE) 2,875 ? 8.4°
